timestamp,surface_pressure_avg,surface_temp_avg,battery_voltage,lat,long
2021-12-13 00:09:00+00:00,235.5381,6.5,12.57,47.84626,-54.09684
2021-12-13 00:19:00+00:00,236.3964,6.5,12.57,47.84626,-54.09684
2021-12-13 00:29:00+00:00,242.0397,6.5,12.57,47.84626,-54.09684
2021-12-13 00:39:00+00:00,246.9047,6.5,12.57,47.84626,-54.09684
2021-12-13 00:49:00+00:00,246.2747,6.5,12.57,47.84626,-54.09684
2021-12-13 00:59:00+00:00,242.9164,6.5,12.57,47.84626,-54.09684
2021-12-13 01:09:00+00:00,247.3747,6.5,12.57,47.84626,-54.09684
2021-12-13 01:19:00+00:00,248.9964,6.5,12.57,47.84626,-54.09684
2021-12-13 01:29:00+00:00,242.2831,6.5,12.57,47.84626,-54.09684
2021-12-13 01:39:00+00:00,239.8748,6.5,12.57,47.84626,-54.09684
2021-12-13 01:49:00+00:00,248.5414,6.5,12.57,47.84626,-54.09684
2021-12-13 01:59:00+00:00,243.0031,6.5,12.57,47.84626,-54.09684
2021-12-13 02:09:00+00:00,235.0881,6.49,12.57,47.84626,-54.09684
2021-12-13 02:19:00+00:00,237.2697,6.5,12.57,47.84626,-54.09684
2021-12-13 02:29:00+00:00,241.4597,6.5,12.57,47.84626,-54.09684
2021-12-13 02:39:00+00:00,242.9147,6.5,12.57,47.84626,-54.09684
2021-12-13 02:49:00+00:00,248.8297,6.5,12.57,47.84626,-54.09684
2021-12-13 02:59:00+00:00,252.7263,6.51,12.57,47.84626,-54.09684
2021-12-13 03:09:00+00:00,255.3847,6.55,12.57,47.84626,-54.09684
2021-12-13 03:19:01+00:00,259.4964,6.57,12.57,47.84626,-54.09684
2021-12-13 03:29:01+00:00,257.0031,6.58,12.57,47.84626,-54.09684
2021-12-13 03:39:01+00:00,248.4397,6.58,12.57,47.84626,-54.09684
2021-12-13 03:49:01+00:00,251.9631,6.58,12.57,47.84626,-54.09684
2021-12-13 03:59:01+00:00,265.2581,6.59,12.57,47.84626,-54.09684
2021-12-13 04:09:01+00:00,268.2447,6.6,12.57,47.84626,-54.09684
2021-12-13 04:19:00+00:00,263.0797,6.6,12.57,47.84626,-54.09684
2021-12-13 04:29:00+00:00,269.7748,6.6,12.57,47.84626,-54.09684
2021-12-13 04:39:00+00:00,281.5997,6.6,12.57,47.84626,-54.09684
2021-12-13 04:49:00+00:00,288.2281,6.6,12.57,47.84626,-54.09684
2021-12-13 04:59:00+00:00,290.0498,6.6,12.57,47.84626,-54.09684
2021-12-13 05:09:00+00:00,300.1797,6.6,12.57,47.84626,-54.09684
2021-12-13 05:19:01+00:00,302.5997,6.5,12.49,47.84626,-54.09684
2021-12-13 05:29:01+00:00,306.7713,6.49,12.49,47.84626,-54.09684
2021-12-13 05:39:01+00:00,307.8847,6.5,12.49,47.84626,-54.09684
2021-12-13 05:49:01+00:00,311.908,6.7,12.49,47.84626,-54.09684
2021-12-13 05:59:01+00:00,317.3463,6.8,12.49,47.84626,-54.09684
2021-12-13 06:09:01+00:00,325.0714,6.8,12.49,47.84626,-54.09684
2021-12-13 06:19:00+00:00,329.2313,6.8,12.49,47.84626,-54.09684
2021-12-13 06:29:00+00:00,321.6396,6.8,12.49,47.84626,-54.09684
2021-12-13 06:39:00+00:00,330.403,6.8,12.49,47.84626,-54.09684
2021-12-13 06:49:00+00:00,342.9863,6.79,12.49,47.84626,-54.09684
2021-12-13 06:59:00+00:00,347.6846,6.7,12.49,47.84626,-54.09684
2021-12-13 07:09:00+00:00,338.7729,6.7,12.49,47.84626,-54.09684
2021-12-13 07:19:00+00:00,342.1896,6.65,12.49,47.84626,-54.09684
2021-12-13 07:29:00+00:00,346.7163,6.6,12.49,47.84626,-54.09684
2021-12-13 07:39:00+00:00,339.3229,6.5,12.49,47.84626,-54.09684
2021-12-13 07:49:00+00:00,337.468,6.5,12.49,47.84626,-54.09684
2021-12-13 07:59:00+00:00,337.2629,6.5,12.49,47.84626,-54.09684
2021-12-13 08:09:00+00:00,331.6597,6.5,12.49,47.84626,-54.09684
2021-12-13 08:19:00+00:00,327.6296,6.5,12.49,47.84626,-54.09684
2021-12-13 08:29:00+00:00,327.86800000000005,6.5,12.49,47.84626,-54.09684
2021-12-13 08:39:00+00:00,322.6346,6.49,12.49,47.84626,-54.09684
2021-12-13 08:49:00+00:00,317.1813,6.5,12.49,47.84626,-54.09684
2021-12-13 08:59:00+00:00,318.0264,6.39,12.49,47.84626,-54.09684
2021-12-13 09:09:00+00:00,310.9563,6.36,12.49,47.84626,-54.09684
2021-12-13 09:19:00+00:00,305.8913,6.4,12.49,47.84626,-54.09684
2021-12-13 09:29:00+00:00,308.3846,6.4,12.49,47.84626,-54.09684
2021-12-13 09:39:00+00:00,302.023,6.4,12.49,47.84626,-54.09684
2021-12-13 09:49:00+00:00,290.4997,6.49,12.49,47.84626,-54.09684
2021-12-13 09:59:00+00:00,286.9697,6.5,12.49,47.84626,-54.09684
2021-12-13 10:09:00+00:00,289.468,6.6,12.49,47.84626,-54.09684
2021-12-13 10:19:00+00:00,289.2247,6.78,12.41,47.84626,-54.09684
2021-12-13 10:29:00+00:00,281.5531,6.8,12.41,47.84626,-54.09684
2021-12-13 10:39:00+00:00,279.8063,6.8,12.41,47.84626,-54.09684
2021-12-13 10:49:00+00:00,275.9897,6.78,12.41,47.84626,-54.09684
2021-12-13 10:59:00+00:00,273.8781,6.3,12.41,47.84626,-54.09684
2021-12-13 11:09:00+00:00,272.0314,6.2,12.41,47.84626,-54.09684
2021-12-13 11:19:00+00:00,269.0181,6.3,12.41,47.84626,-54.09684
2021-12-13 11:29:00+00:00,260.33299999999997,6.39,12.41,47.84626,-54.09684
2021-12-13 11:39:00+00:00,258.3331,6.4,12.41,47.84626,-54.09684
2021-12-13 11:49:00+00:00,257.5865,6.49,12.41,47.84626,-54.09684
2021-12-13 11:59:00+00:00,250.5414,6.5,12.41,47.84626,-54.09684
2021-12-13 12:09:00+00:00,240.8597,6.33,12.41,47.84626,-54.09684
2021-12-13 12:19:01+00:00,246.5215,6.37,12.41,47.84626,-54.09684
2021-12-13 12:29:01+00:00,254.7297,6.53,12.41,47.84626,-54.09684
2021-12-13 12:39:01+00:00,250.6414,6.6,12.41,47.84626,-54.09684
2021-12-13 12:49:01+00:00,242.5397,6.5,12.41,47.84626,-54.09684
2021-12-13 12:59:01+00:00,247.0147,6.4,12.41,47.84626,-54.09684
2021-12-13 13:09:01+00:00,243.7798,6.4,12.41,47.84626,-54.09684
2021-12-13 13:19:00+00:00,236.6114,6.3,12.57,47.84626,-54.09684
2021-12-13 13:29:00+00:00,235.1631,6.1,12.57,47.84626,-54.09684
2021-12-13 13:39:00+00:00,231.9415,6.02,12.57,47.84626,-54.09684
2021-12-13 13:49:00+00:00,224.8564,6.0,12.57,47.84626,-54.09684
2021-12-13 13:59:00+00:00,227.4831,6.26,12.57,47.84626,-54.09684
2021-12-13 14:09:00+00:00,233.4115,6.47,12.57,47.84626,-54.09684
2021-12-13 14:19:01+00:00,231.4797,6.56,13.84,47.84626,-54.09684
2021-12-13 14:29:01+00:00,230.1881,6.6,13.84,47.84626,-54.09684
2021-12-13 14:39:01+00:00,238.0147,6.64,13.84,47.84626,-54.09684
2021-12-13 14:49:01+00:00,246.2298,6.7,13.84,47.84626,-54.09684
2021-12-13 14:59:01+00:00,245.1431,6.78,13.84,47.84626,-54.09684
2021-12-13 15:09:01+00:00,248.2231,6.8,13.84,47.84626,-54.09684
2021-12-13 15:19:00+00:00,257.6947,6.8,13.68,47.84626,-54.09684
2021-12-13 15:29:00+00:00,260.7547,6.8,13.68,47.84626,-54.09684
2021-12-13 15:39:00+00:00,259.3414,6.85,13.68,47.84626,-54.09684
2021-12-13 15:49:00+00:00,265.6947,6.87,13.68,47.84626,-54.09684
2021-12-13 15:59:00+00:00,276.123,6.83,13.68,47.84626,-54.09684
2021-12-13 16:09:00+00:00,279.563,6.88,13.68,47.84626,-54.09684
2021-12-13 16:19:00+00:00,280.9397,6.9,14.32,47.84626,-54.09684
2021-12-13 16:29:00+00:00,289.1815,6.9,14.32,47.84626,-54.09684
2021-12-13 16:39:00+00:00,296.0364,6.9,14.32,47.84626,-54.09684
2021-12-13 16:49:00+00:00,295.1763,6.98,14.32,47.84626,-54.09684
2021-12-13 16:59:00+00:00,301.4697,7.0,14.32,47.84626,-54.09684
2021-12-13 17:09:00+00:00,314.0396,6.89,14.32,47.84626,-54.09684
2021-12-13 17:19:00+00:00,315.9813,6.59,13.6,47.84626,-54.09684
2021-12-13 17:29:00+00:00,313.158,6.55,13.6,47.84626,-54.09684
2021-12-13 17:39:00+00:00,318.5031,6.71,13.6,47.84626,-54.09684
2021-12-13 17:49:00+00:00,328.6229,6.64,13.6,47.84626,-54.09684
2021-12-13 17:59:00+00:00,330.0247,6.49,13.6,47.84626,-54.09684
2021-12-13 18:09:00+00:00,331.8996,6.54,13.6,47.84626,-54.09684
2021-12-13 18:19:01+00:00,338.7014,6.86,14.32,47.84626,-54.09684
2021-12-13 18:29:01+00:00,344.6113,6.8,14.32,47.84626,-54.09684
2021-12-13 18:39:01+00:00,342.293,6.7,14.32,47.84626,-54.09684
2021-12-13 18:49:01+00:00,342.0795,6.65,14.32,47.84626,-54.09684
2021-12-13 18:59:01+00:00,350.9713,6.7,14.32,47.84626,-54.09684
2021-12-13 19:09:01+00:00,351.0197,6.7,14.32,47.84626,-54.09684
2021-12-13 19:19:00+00:00,345.1863,6.6,13.53,47.84626,-54.09684
2021-12-13 19:29:00+00:00,345.9879,6.5,13.53,47.84626,-54.09684
2021-12-13 19:39:00+00:00,350.9846,6.5,13.53,47.84626,-54.09684
2021-12-13 19:49:00+00:00,347.5129,6.35,13.53,47.84626,-54.09684
2021-12-13 19:59:00+00:00,342.1196,6.2,13.53,47.84626,-54.09684
2021-12-13 20:09:00+00:00,343.7313,6.2,13.53,47.84626,-54.09684
2021-12-13 20:19:00+00:00,346.8297,6.24,13.13,47.84626,-54.09684
2021-12-13 20:29:00+00:00,341.7296,6.3,13.13,47.84626,-54.09684
2021-12-13 20:39:00+00:00,341.3445,6.3,13.13,47.84626,-54.09684
2021-12-13 20:49:00+00:00,342.6096,6.3,13.13,47.84626,-54.09684
2021-12-13 20:59:00+00:00,342.0696,6.1,13.13,47.84626,-54.09684
2021-12-13 21:09:00+00:00,343.4863,6.0,13.13,47.84626,-54.09684
2021-12-13 21:19:00+00:00,345.9047,5.94,12.81,47.84626,-54.09684
2021-12-13 21:29:00+00:00,341.533,6.2,12.81,47.84626,-54.09684
2021-12-13 21:39:00+00:00,339.1097,5.95,12.81,47.84626,-54.09684
2021-12-13 21:49:00+00:00,341.213,6.1,12.81,47.84626,-54.09684
2021-12-13 21:59:00+00:00,338.2229,6.1,12.81,47.84626,-54.09684
2021-12-13 22:09:00+00:00,330.6313,6.0,12.81,47.84626,-54.09684
2021-12-13 22:19:00+00:00,329.5797,6.09,12.73,47.84626,-54.09684
2021-12-13 22:29:00+00:00,332.5897,6.16,12.73,47.84626,-54.09684
2021-12-13 22:39:00+00:00,326.0797,6.1,12.73,47.84626,-54.09684
2021-12-13 22:49:00+00:00,314.548,6.1,12.73,47.84626,-54.09684
2021-12-13 22:59:00+00:00,313.5681,6.0,12.73,47.84626,-54.09684
2021-12-13 23:09:00+00:00,312.7896,6.03,12.73,47.84626,-54.09684
2021-12-13 23:19:00+00:00,299.9064,6.1,12.73,47.84626,-54.09684
2021-12-13 23:29:00+00:00,289.7664,6.0,12.73,47.84626,-54.09684
2021-12-13 23:39:00+00:00,284.2964,6.0,12.73,47.84626,-54.09684
2021-12-13 23:49:00+00:00,275.3764,6.0,12.73,47.84626,-54.09684
2021-12-13 23:59:00+00:00,265.8781,6.0,12.73,47.84626,-54.09684
